Probability
7 4 2 1 0 0 0 0 0 0 0 0 0 0 0 0 0 0 0 0 0 0 0 0 0 0 0 0 0 0 0 0 0 0 0 0 0 0 0 0 0 0 0
8 5 3 2 0 0 0 0 0 0 0 0 0 0 0 0 0 0 0 0 0 0 0 0 0 0 0 0 0 0 0 0 0 0 0 0 0 0 0 0 0 0 0
7 4 4 4 1 0 0 0 0 0 0 0 0 0 0 0 0 0 0 0 0 0 0 0 0 0 0 0 0 0 0 0 0 0 0 0 0 0 0 0 0 0 0
5 4 4 4 2 0 0 0 0 0 0 0 0 0 0 0 0 0 0 0 0 0 0 0 0 0 0 0 0 0 0 0 0 0 0 0 0 0 0 0 0 0 0
5 6 7 6 2 1 1 1 0 0 0 0 0 0 0 0 0 0 0 0 0 0 0 0 0 0 0 0 0 0 0 0 0 0 0 0 0 0 0 0 0 0 0
6 7 7 7 4 2 2 2 1 0 0 0 0 0 0 0 0 0 0 0 0 0 0 0 0 0 0 0 0 0 0 0 0 0 0 0 0 0 0 0 0 0 0
7 7 7 7 6 3 3 3 2 1 0 0 0 0 0 0 0 0 0 0 0 0 0 0 0 0 0 0 0 0 0 0 0 0 0 0 0 0 0 0 0 0 0
11 9 8 8 6 4 3 3 2 1 0 0 0 0 0 0 0 0 0 0 0 0 0 0 0 0 0 0 0 0 0 0 0 0 0 0 0 0 0 0 0 0 0
16 13 9 7 6 4 3 3 2 1 0 0 0 0 0 0 0 0 0 0 0 0 0 0 0 0 0 0 0 0 0 0 0 0 0 0 0 0 0 0 0 0 0
20 15 10 7 6 5 4 3 3 2 1 0 0 0 0 0 0 0 0 0 0 0 0 0 0 0 0 0 0 0 0 0 0 0 0 0 0 0 0 0 0 0 0
24 19 13 9 7 5 5 4 3 3 1 0 0 0 0 0 0 0 0 0 0 0 0 0 0 0 0 0 0 0 0 0 0 0 0 0 0 0 0 0 0 0 0
29 24 19 13 8 5 5 4 4 4 2 1 0 0 0 0 0 0 0 0 0 0 0 0 0 0 0 0 0 0 0 0 0 0 0 0 0 0 0 0 0 0 0
32 29 26 21 15 11 10 8 7 6 4 2 1 0 0 0 0 0 0 0 0 0 0 0 0 0 0 0 0 0 0 0 0 0 0 0 0 0 0 0 0 0 0
40 37 35 32 30 29 25 16 12 9 7 6 5 3 2 1 0 0 0 0 0 0 0 0 0 0 0 0 0 0 0 0 0 0 0 0 0 0 0 0 0 0 0
54 48 44 42 44 47 41 28 19 16 14 13 10 6 4 3 2 1 0 0 0 0 0 0 0 0 0 0 0 0 0 0 0 0 0 0 0 0 0 0 0 0 0
66 58 51 48 50 52 46 33 26 23 21 19 15 9 5 6 6 4 1 0 0 0 0 0 0 0 0 0 0 0 0 0 0 0 0 0 0 0 0 0 0 0 0
72 65 54 48 47 46 39 31 27 24 21 22 20 14 9 9 11 7 2 0 0 0 0 0 0 0 0 0 0 0 0 0 0 0 0 0 0 0 0 0 0 0 0
74 67 57 47 40 36 32 29 27 24 24 28 28 22 15 14 15 10 4 1 1 0 0 0 0 0 0 0 0 0 0 1 1 1 0 0 0 0 0 0 0 0 0
75 68 60 51 41 34 30 31 31 29 30 34 33 28 24 22 20 14 9 6 3 2 2 2 1 1 0 0 0 0 0 2 2 1 0 0 0 0 0 0 0 0 0
75 69 63 56 48 38 31 31 32 32 33 35 33 30 30 29 24 18 14 11 8 6 6 5 4 3 2 1 1 0 0 2 3 2 0 0 0 0 1 2 1 0 0
72 68 62 57 51 42 34 32 31 31 31 31 31 32 32 30 26 20 16 16 14 11 11 10 8 6 4 3 1 1 0 1 4 4 1 0 0 1 3 4 3 1 1
69 66 61 57 52 44 37 33 30 28 27 24 26 31 31 29 26 22 21 23 20 16 15 14 11 8 6 4 3 3 1 1 3 4 3 1 1 2 3 5 4 3 3
65 64 60 56 51 43 37 31 27 25 21 17 21 27 28 26 25 25 25 26 23 19 17 15 13 10 7 6 6 6 3 1 2 3 4 3 3 3 2 3 4 5 5
59 59 59 56 49 41 35 30 25 19 15 13 17 23 23 22 23 25 24 25 25 22 17 14 13 13 10 7 8 9 6 3 3 3 3 3 4 4 2 2 3 4 5
51 51 54 54 49 40 34 31 26 18 12 11 16 20 19 18 20 21 22 24 25 23 17 14 15 16 13 9 8 9 9 7 5 2 1 2 3 3 3 3 3 4 4
46 46 48 51 48 39 33 30 26 20 13 13 16 17 16 16 18 19 21 25 25 21 16 14 16 17 14 10 8 9 10 10 7 3 1 2 3 3 4 5 6 5 4
Wind_Speed
16 16 16 15 14 14 14 13 13 13 13 12 12 12 12 12 12 12 12 11 11 11 11 10 11 11 11 11 12 12 13 13 14 15 15 15 14 13 12 13 14 12 15
20 17 17 15 15 14 14 13 13 13 13 12 12 12 12 11 11 11 11 11 11 11 11 11 11 11 11 11 11 12 12 12 13 14 15 14 13 12 12 13 15 11 15
20 18 16 15 15 15 14 14 13 13 13 12 12 11 11 11 10 11 11 11 12 11 11 11 11 11 11 11 11 11 11 11 11 12 13 9 10 13 14 15 16 15 14
20 17 16 17 15 15 14 14 13 13 13 12 12 11 10 10 11 11 11 12 12 12 12 12 12 12 12 11 10 9 9 9 9 9 6 8 8 14 15 15 15 14 14
19 17 17 17 16 15 15 14 13 13 13 12 11 11 11 11 11 11 12 12 12 12 12 12 12 12 11 10 9 7 6 6 6 6 8 8 8 13 14 14 14 14 14
19 18 18 18 17 15 15 14 13 13 12 11 11 11 11 11 11 12 12 12 12 12 12 12 12 11 11 9 8 6 4 3 3 7 8 9 8 12 13 13 14 13 13
20 19 18 18 17 15 15 14 13 13 12 11 11 11 11 11 11 12 12 12 12 12 12 12 11 11 10 8 6 4 1 1 2 9 9 9 9 12 13 13 13 13 13
20 19 17 17 16 15 14 14 13 13 12 11 11 11 11 11 12 12 12 12 12 12 11 11 11 10 9 6 4 2 1 3 7 10 10 9 11 12 12 12 12 12 12
19 18 15 15 14 15 14 13 13 12 12 11 11 11 11 11 11 12 11 11 11 11 11 10 10 9 7 5 3 1 3 4 3 7 11 8 11 12 12 12 11 11 11
17 17 15 15 14 12 12 13 13 12 12 11 11 11 11 11 11 12 11 10 11 10 10 9 9 8 6 4 2 1 3 5 4 9 8 9 12 12 12 11 11 10 10
14 14 15 16 14 13 12 13 13 12 11 11 10 11 11 8 9 9 11 11 10 9 9 8 8 7 6 4 3 3 4 1 6 8 7 11 12 12 11 11 10 10 10
14 12 10 14 13 13 11 10 8 9 9 8 7 9 6 4 5 9 12 11 10 9 8 7 7 7 5 3 4 4 2 2 6 7 8 13 12 11 10 10 9 9 9
13 11 11 12 10 9 8 8 6 5 6 6 7 6 4 4 5 7 5 6 6 8 6 6 6 3 3 2 2 2 1 1 4 7 9 12 11 11 10 9 9 9 9
11 10 10 10 7 7 7 6 5 5 5 5 6 6 4 3 4 4 3 5 4 3 3 3 2 3 2 1 2 2 2 2 5 6 7 12 11 10 10 9 8 8 8
11 10 9 9 7 6 5 4 5 5 6 6 5 4 4 4 4 4 3 2 3 3 3 3 2 3 2 1 1 2 2 3 5 7 6 11 11 9 9 9 8 8 7
11 9 9 9 7 6 5 2 2 4 4 5 5 6 5 4 4 4 3 2 2 2 2 2 3 3 2 1 1 2 2 2 4 7 7 8 10 9 8 8 8 8 8
10 10 9 9 9 7 6 5 3 3 5 5 5 5 4 3 5 3 3 3 2 3 3 2 2 2 2 2 2 2 2 2 3 5 7 6 6 8 9 8 8 8 8
11 11 10 10 10 9 6 5 3 3 4 4 5 5 5 4 5 3 3 3 3 3 3 2 2 2 2 1 2 2 2 2 3 4 5 7 6 6 8 10 9 9 9
10 11 10 9 10 9 7 4 3 2 2 3 4 5 5 5 5 3 2 3 3 2 3 3 2 1 1 1 2 2 3 3 3 4 4 6 6 6 6 9 11 10 10
10 10 10 9 10 9 6 4 3 3 3 3 3 4 6 5 5 3 3 4 3 2 2 2 3 1 1 1 2 2 3 3 3 3 4 5 5 7 8 8 7 8 12
10 10 10 10 10 8 6 6 5 4 3 3 4 6 6 5 5 3 2 4 2 2 3 3 3 3 2 2 1 1 2 3 4 3 3 3 5 6 6 8 7 5 6
10 10 10 10 10 9 6 5 4 4 3 3 3 5 6 5 5 5 3 3 3 2 2 2 2 1 2 2 1 1 1 1 2 4 3 3 4 4 5 8 7 6 5
11 11 10 10 10 10 8 5 4 3 2 3 3 3 4 5 5 3 4 3 3 3 3 3 3 3 2 2 2 1 1 1 1 1 3 3 3 3 3 4 7 7 7
11 11 10 10 9 8 8 7 8 6 5 5 4 4 5 5 5 5 5 4 3 2 3 4 4 2 2 2 1 1 1 1 1 0 2 2 5 4 4 4 5 5 5
10 10 9 9 9 9 8 8 8 6 5 4 4 5 5 5 5 5 5 4 4 3 4 3 2 2 2 2 1 1 1 1 2 2 2 1 2 2 3 3 3 4 4
9 9 9 9 9 9 9 8 8 8 7 6 5 5 5 4 4 6 6 5 5 4 3 3 2 3 2 1 1 1 1 1 1 1 1 2 2 2 3 2 2 3 3
Wind_Direction
125 127 129 126 125 123 121 119 117 114 112 107 103 99 95 93 92 91 91 93 96 100 100 99 99 98 97 94 92 90 92 94 95 96 94 94 95 98 102 106 103 98 102
124 128 129 127 125 123 122 121 120 117 115 112 107 102 99 98 96 95 94 96 98 99 100 100 101 101 101 100 100 98 100 102 104 104 101 97 95 93 93 96 97 103 104
124 129 131 128 125 123 122 121 121 120 117 114 109 106 103 101 99 98 97 96 97 98 100 101 102 103 104 103 105 107 111 116 119 120 113 102 96 94 94 98 103 107 105
128 135 132 130 127 125 123 122 121 120 119 116 112 109 106 104 102 101 100 99 98 99 101 101 102 104 105 106 109 113 120 127 131 133 115 106 102 101 102 103 108 108 107
130 128 128 134 131 129 127 126 124 123 121 119 115 112 108 105 104 102 101 100 100 100 100 100 101 103 105 107 112 118 126 132 139 116 97 93 93 107 107 108 110 109 109
129 128 134 136 134 133 132 131 129 126 124 122 118 114 110 107 104 103 103 103 102 101 100 99 99 102 106 108 112 117 123 141 145 109 103 102 103 110 111 111 111 111 111
133 130 137 138 137 136 135 134 133 131 128 125 121 117 114 110 107 107 107 105 105 104 102 101 101 102 105 108 111 111 111 317 142 110 104 100 105 112 112 111 112 114 113
130 131 135 139 140 139 139 138 137 135 131 128 125 120 116 114 112 111 110 109 109 107 105 104 104 104 106 107 107 100 347 331 103 109 108 106 113 113 111 110 112 115 114
127 132 142 143 143 143 142 142 141 138 134 133 130 127 124 122 120 118 115 114 112 110 108 106 107 109 111 112 111 23 340 347 104 114 111 110 117 116 115 115 115 115 116
133 140 146 148 146 150 148 148 145 142 140 140 139 138 135 133 131 129 125 120 119 117 115 114 113 118 124 132 153 278 318 320 120 102 105 118 123 121 120 118 117 119 120
137 144 154 148 152 157 154 150 150 149 149 149 151 152 151 154 145 149 125 130 129 128 127 128 129 135 145 161 201 260 291 283 96 98 104 124 129 126 124 122 121 121 123
145 151 152 146 158 163 153 148 159 163 158 174 160 166 179 161 144 130 133 140 141 142 145 149 153 165 185 178 192 227 259 166 111 110 118 132 132 131 129 129 128 127 129
151 152 151 151 160 155 140 159 167 162 159 179 160 165 164 144 134 130 146 148 156 165 169 156 177 197 207 183 163 189 219 107 105 111 129 137 137 138 137 137 137 137 137
155 156 152 143 150 140 145 160 159 157 163 157 152 174 158 152 143 144 151 162 168 176 163 166 171 164 190 185 156 127 106 78 101 110 138 144 142 144 146 148 146 145 146
155 157 146 141 139 127 124 155 166 157 159 150 155 183 162 158 146 142 143 160 169 157 163 173 165 142 157 150 114 102 83 82 111 115 133 151 148 150 153 154 155 156 157
156 152 145 142 140 133 135 171 164 156 144 147 161 171 180 157 137 144 152 163 162 150 150 153 143 141 163 132 117 132 120 108 109 124 140 151 154 159 162 164 166 167 167
153 150 149 152 153 155 162 190 177 173 157 160 155 158 179 161 140 150 154 172 165 140 140 151 148 148 171 165 162 154 134 139 138 138 146 152 160 170 174 175 177 178 177
155 155 159 165 163 166 173 195 187 188 156 154 147 156 174 155 150 163 171 165 155 156 164 146 178 168 154 160 163 166 143 142 153 163 160 163 163 171 181 186 185 187 190
158 158 162 161 158 166 174 187 198 184 152 155 151 154 164 168 159 179 171 138 169 170 165 177 156 149 149 158 181 176 169 165 169 193 169 166 167 165 171 186 190 193 199
160 161 164 163 160 165 170 178 197 184 169 169 157 151 157 170 169 181 169 163 188 162 146 118 121 131 164 210 233 179 184 171 185 183 187 176 170 178 176 174 182 200 208
166 168 169 171 166 167 173 179 183 185 185 178 170 159 165 177 170 187 183 157 185 155 155 157 159 174 209 211 219 227 213 193 187 182 200 178 182 188 173 166 180 188 197
170 172 172 174 171 175 179 177 177 176 187 186 180 159 170 171 174 185 180 180 172 152 171 183 165 179 225 205 192 185 259 266 233 202 185 197 187 180 178 181 186 182 184
171 173 175 176 177 180 175 169 173 167 183 189 170 166 176 173 183 186 168 193 164 177 178 186 190 196 233 240 200 174 175 206 239 237 201 191 180 181 196 189 186 184 187
172 171 170 173 176 179 178 178 179 185 191 190 175 173 180 184 186 182 178 186 181 191 164 195 192 200 214 251 235 196 193 163 187 212 259 201 187 189 200 202 191 180 181
170 169 169 169 175 179 185 187 190 193 190 184 175 177 184 184 189 186 181 181 186 200 186 195 159 181 215 239 248 226 228 212 229 191 223 220 201 190 191 197 179 170 177
164 167 168 170 176 180 187 191 195 194 188 183 183 182 185 184 191 195 187 179 188 200 183 173 177 197 216 278 298 282 227 228 246 228 203 198 198 204 182 177 179 168 164